Location: Guadanolo
(41.9167°N, 12.9333°E)
Time: 09:54:03
(UTC+00:00)

Cosmos 1140 Rocket - Pass Details

Date: 16 September 2019
Orbit: 745 x 767 km, 74.1° (Epoch: 15 October)

Event Time Altitude Azimuth Distance (km) Brightness Sun altitude
Rises 20:00:13 0° 338° (NNW) 3,220 7.5 -29.3°
Reaches altitude 10° 20:02:36 10° 336° (NNW) 2,288 6.6 -29.7°
Enters shadow 20:06:48 56° 313° (NW) 890 4.0 -30.3°
